Other Public Products
Issued by NWS Charleston, SC

Current Version | Previous Version | Graphics & Text | Print | Product List | Glossary On
Versions: 1 2 3 4 5 6 7 8 9 10 11 12 13 14 15 16 17 18 19 20 21 22 23 24 25 26 27 28 29 30 31 32 33 34 35 36 37 38 39 40 41 42 43 44 45 46 47 48 49 50
000 FPUS82 KCHS 222027 OPUCHS TEST...KCHS/KSAV Gateway Observations...TEST National Weather Service Charleston SC 400 PM EDT TUE MAY 22 2018 NOTE: "fair" indicates few or no clouds below 12,000 feet with no significant weather and/or obstructions to visibility. SCZ050-WAZ558-NCZ071-TXZ119-213-PAZ071-DCZ001-FLZ074-172-MI076- NYZ176-178-MAZ016-IL014-TNZ027-NJZ106-GAZ044-MD014-222100- ...Gateway Observations for Charleston International... CITY SKY/WX TMP DP RH WIND PRES REMARKS Chas Airport LGT RAIN 80 73 79 W7 30.10F Seattle MOSUNNY 71 51 49 W10 29.92F Charlotte PTSUNNY 85 64 49 S10 30.07F Dallas DFW PTSUNNY 87 65 47 S10G18 29.96F Dallas Love PTSUNNY 89 68 49 S10G17 29.96F HX 93 Philladelphia CLOUDY 63 60 90 E7 30.04F Wash National PTSUNNY 77 68 73 S8 29.99F Baltimore PTSUNNY 69 65 86 E8 29.99F Miami PTSUNNY 81 72 74 E16 30.05F Detroit PTSUNNY 76 63 64 NW12 29.93F Newark LGT RAIN 60 55 83 VRB5 30.06F Laguardia LGT RAIN 60 48 64 CALM 30.07F J F K LGT RAIN 60 54 80 SE6 30.09F Boston Logan LGT RAIN 58 55 90 E7 30.07F Ft. Lauderdale FAIR 81 74 79 SE17 30.05F Chicago O`Hare CLOUDY 64 55 72 E6 30.05F Chicago Midway CLOUDY 64 56 75 VRB6 30.06S Houston Bush PTSUNNY 89 70 53 CALM 29.95F HX 94 Houston Hobby TSTM 76 69 79 SE23G33 29.96S Nashville PTSUNNY 85 68 56 E8 30.02F Atlanta PTSUNNY 82 67 60 SE6 30.03F $$ GAZ044-118-TXZ119-213-NCZ071-DCZ001-MDZ014-506-PAZ021-071-NJZ106- NYZ176-178-MAZ106-OHZ011-021-055-MIZ076-KYZ091-ILZ014-INZ047- MNZ060-ONZ431-222100- ...Gateway Observations for Savannah International... CITY SKY/WX TMP DP RH WIND PRES REMARKS Savannah Arpt PTSUNNY 80 72 76 SE10 30.10F Atlanta PTSUNNY 82 67 60 SE6 30.03F Charlotte PTSUNNY 85 64 49 S10 30.07F Dallas DFW PTSUNNY 87 65 47 S10G18 29.96F Houston Bush PTSUNNY 89 70 53 CALM 29.95F HX 94 Wash National PTSUNNY 77 68 73 S8 29.99F Wash Dulles PTSUNNY 78 69 73 SW7 29.98F Baltimore PTSUNNY 69 65 86 E8 29.99F Philadelphia CLOUDY 63 60 90 E7 30.04F Newark LGT RAIN 60 55 83 VRB5 30.06F Laguardia LGT RAIN 60 48 64 CALM 30.07F J F K LGT RAIN 60 54 80 SE6 30.09F Boston LGT RAIN 58 55 90 E7 30.07F Pittsburg PTSUNNY 76 65 68 SW9 29.98F Akron PTSUNNY 80 65 59 SW12 29.95F Cleveland CLOUDY 70 65 84 S6 29.96F THUNDER Cincinnati PTSUNNY 81 69 67 S9 29.99F Columbus PTSUNNY 81 68 64 MISG 29.95F Detroit PTSUNNY 76 63 64 NW12 29.93F Chicago O`Hare CLOUDY 64 55 72 E6 30.05F Minneapolis CLOUDY 73 58 59 CALM 30.04S Indianapolis PTSUNNY 84 64 50 W16 29.98F Toronto Canada CLOUDY 63 57 82 VRB2 29.91F $$

USA.gov is the U.S. government's official web portal to all federal, state and local government web resources and services.